Flag for Mexico Weather past 2 weeks in Puerto Vallarta, Jalisco, Mexico

Now
84 °F

Passing clouds.


Feels Like: 96 °F
Forecast: 76 / 89 °F
Wind: No wind

Location: Puerto Vallarta / Lic

Current Time: Oct 26, 2014 at 12:19:28 AM

Latest Report: Oct 25, 2014 at 9:48 PM


Visibility: 8 mi

Pressure: 29.88 "Hg

Humidity: 84%

Dew point: 79 °F

Location of Puerto VallartaLocation

Historic Weather in Puerto Vallarta — Graph

°F

Puerto Vallarta temperature yesterday

Maximum temperature yesterday: 88 °F (at 12:49 PM)
Minimum temperature yesterday: 79 °F (at 5:48 AM)
Average temperature yesterday: 84 °F

Past Weeks' High & Low Weather Summary

 TemperatureHumidityPressure
High91 °F (Oct 13, 4:50 PM)100% (Oct 21, 8:48 PM)29.94 "Hg (Oct 21, 8:48 PM)
Low75 °F (Oct 11, 2:57 AM)55% (Oct 13, 12:45 PM)29.69 "Hg (Oct 21, 4:46 PM)
Average82 °F81%29.82 "Hg
* Reported Oct 10 9:45 PM — Oct 25 9:48 PM, Puerto Vallarta, Weather by CustomWeather, © 2014

Note: Actual official high and low records may vary slightly from our data, if they occured in-between our weather recording intervals... More about our weather records

Advertising

Puerto Vallarta weather history for previous 24 hours

 ConditionsComfort  
Time TempWeatherWind HumidityBarometerVisibility
9:48 PM
Oct 25
84 °FPassing clouds.No wind84%29.88 "Hg8 mi
8:45 PM86 °FPassing clouds.2 mph84%29.87 "Hg8 mi
7:50 PM84 °FPartly sunny.6 mph84%29.86 "Hg10 mi
5:45 PM86 °FScattered clouds.9 mph79%29.84 "Hg10 mi
4:50 PM88 °FScattered clouds.12 mph75%29.85 "Hg10 mi
3:49 PM88 °FScattered clouds.9 mph75%29.85 "Hg10 mi
1:45 PM88 °FScattered clouds.9 mph75%29.90 "Hg12 mi
12:49 PM88 °FPassing clouds.9 mph70%29.92 "Hg12 mi
10:52 AM86 °FPassing clouds.No wind75%29.94 "Hg12 mi
8:44 AM79 °FPassing clouds.5 mph94%29.92 "Hg10 mi
6:45 AM79 °FPassing clouds.2 mph94%29.88 "Hg12 mi
5:48 AM79 °FMostly cloudy.3 mph94%29.89 "Hg10 mi
4:46 AM81 °FMostly cloudy.3 mph94%29.89 "Hg10 mi
3:45 AM81 °FMostly cloudy.3 mph94%29.89 "Hg8 mi
2:45 AM81 °FMostly cloudy.5 mph94%29.91 "Hg8 mi
1:48 AM82 °FMostly cloudy.2 mph89%29.91 "Hg8 mi
12:46 AM82 °FMostly cloudy.3 mph89%29.91 "Hg8 mi
Weather by CustomWeather, © 2014

See weather overviewHow to use our weather pages